Waarnemingen

Advertentie
Mijn weer
Calvi, Frankrijk (7754): temperatuur & dauwpunt: 19.06.2019 20:00:00 - 25.06.2019 20:00:00 (CEST)Calvi, Frankrijk (7754): temperatuur 5cm: 19.06.2019 20:00:00 - 25.06.2019 20:00:00 (CEST)Calvi, Frankrijk (7754): windsnelheid & windstoten: 19.06.2019 20:00:00 - 25.06.2019 20:00:00 (CEST)Calvi, Frankrijk (7754): windrichting: 19.06.2019 20:00:00 - 25.06.2019 20:00:00 (CEST)Calvi, Frankrijk (7754): luchtdruk: 19.06.2019 20:00:00 - 25.06.2019 20:00:00 (CEST)Calvi, Frankrijk (7754): zicht: 19.06.2019 20:00:00 - 25.06.2019 20:00:00 (CEST)Calvi, Frankrijk (7754): neerslag: 19.06.2019 20:00:00 - 25.06.2019 20:00:00 (CEST)
Datum & Tijd tt [°C] td [°C] tt 5cm [°C] ff [km/u] ff [kn] fx [km/u] fx [kn] dd ppp [hPa] vv [km] rr [mm]
25.06.2019 20:00:00 27,9 19,9 29,7 10 5 18 10 N 1018,7 37 0,0
25.06.2019 19:00:00 30,1 18,5 33,1 15 8 21 11 N 1018,3 38 0,0
25.06.2019 18:00:00 33,7 15,2 38,0 11 6 22 12 N 1017,9 20 0,0
25.06.2019 17:00:00 33,5 14,5 38,8 12 6 24 13 NNW 1018,0 60 0,0
25.06.2019 16:00:00 33,5 14,1 38,4 13 7 30 16 NW 1018,3 60 0,0
25.06.2019 15:00:00 32,3 15,8 37,4 18 10 30 16 NNW 1018,5 20 0,0
25.06.2019 14:00:00 32,0 16,7 37,5 16 9 27 14 NW 1018,5 59 0,0
25.06.2019 13:00:00 33,1 15,6 37,9 15 8 23 12 N 1018,6 20 0,0
25.06.2019 12:00:00 32,7 15,2 35,2 14 8 21 11 N 1018,8 60 0,0
25.06.2019 11:00:00 31,5 16,3 32,0 14 8 21 11 N 1018,9 19 0,0
25.06.2019 10:00:00 28,6 18,1 31,8 15 8 22 12 N 1019,0 45 0,0
25.06.2019 09:00:00 31,2 16,4 29,5 0 0 5 3 N 1018,9 50 0,0
25.06.2019 08:00:00 26,9 17,4 23,2 4 2 12 7 ZO 1018,8 41 0,0
25.06.2019 07:00:00 22,3 15,9 20,2 9 5 12 7 Z 1018,4 29 0,0
25.06.2019 06:00:00 21,2 15,9 19,2 10 5 16 9 ZZW 1017,8 19 0,0
25.06.2019 05:00:00 20,5 15,7 18,9 9 5 13 7 Z 1017,1 28 0,0
25.06.2019 04:00:00 21,5 16,2 19,6 6 4 15 8 Z 1017,0 31 0,0
25.06.2019 03:00:00 20,5 16,3 19,6 4 2 10 6 Z 1017,3 29 0,0
25.06.2019 02:00:00 21,2 16,8 20,3 5 3 12 6 Z 1017,3 26 0,0
25.06.2019 01:00:00 22,0 17,4 20,8 8 5 10 5 Z 1017,3 27 0,0
25.06.2019 00:00:00 22,6 17,3 21,4 0 0 9 5 N 1017,2 29 0,0
24.06.2019 23:00:00 24,0 17,7 22,7 8 4 15 8 ZZW 1017,1 30 0,0
24.06.2019 22:00:00 24,1 20,0 23,3 0 0 5 3 N 1016,8 18 0,0
24.06.2019 21:00:00 26,4 20,5 26,2 4 2 6 3 NNO 1016,2 20 0,0
24.06.2019 20:00:00 27,3 20,9 29,4 3 2 10 5 NNO 1016,3 28 0,0
24.06.2019 19:00:00 28,2 20,5 31,9 6 4 16 9 N 1016,2 36 0,0
24.06.2019 18:00:00 28,6 20,3 33,2 11 6 21 11 N 1016,3 20 0,0
24.06.2019 17:00:00 28,9 20,6 34,6 15 8 26 14 N 1016,4 60 0,0
24.06.2019 16:00:00 28,2 20,5 34,3 17 9 30 16 N 1016,4 52 0,0
24.06.2019 15:00:00 27,7 19,5 34,0 16 9 29 16 NNW 1016,4 20 0,0
24.06.2019 14:00:00 27,9 19,1 31,6 16 9 28 15 NNW 1016,3 52 0,0
24.06.2019 13:00:00 26,9 19,8 31,2 18 10 29 16 NW 1016,5 56 0,0
24.06.2019 12:00:00 26,9 19,5 31,2 14 8 24 13 NNW 1017,0 54 0,0
24.06.2019 11:00:00 26,7 18,3 29,4 14 8 21 12 N 1016,9 47 0,0
24.06.2019 10:00:00 26,2 18,1 27,2 11 6 21 11 NNW 1017,2 56 0,0
24.06.2019 09:00:00 25,1 16,8 26,3 10 6 15 8 N 1017,2 53 0,0
24.06.2019 08:00:00 23,1 15,7 21,2 2 1 8 4 NNO 1016,9 44 0,0
24.06.2019 07:00:00 19,5 14,3 15,7 6 3 11 6 Z 1016,4 47 0,0
24.06.2019 06:00:00 15,8 14,0 14,6 9 5 12 6 ZZW 1016,7 26 0,0
24.06.2019 05:00:00 16,0 13,8 15,8 11 6 13 7 ZZO 1016,6 36 0,0
24.06.2019 04:00:00 16,6 14,4 16,1 6 3 12 6 Z 1016,7 30 0,0
24.06.2019 03:00:00 17,8 15,1 16,3 11 6 16 9 Z 1017,3 36 0,0
24.06.2019 02:00:00 17,6 14,7 16,5 7 4 11 6 Z 1017,7 37 0,0
24.06.2019 01:00:00 17,8 14,9 17,3 5 3 11 6 ZZO 1017,5 42 0,0
24.06.2019 00:00:00 19,6 15,5 18,6 9 5 13 7 ZZW 1017,1 52 0,0
23.06.2019 23:00:00 20,1 15,1 19,5 4 2 7 4 Z 1016,8 52 0,0
23.06.2019 22:00:00 21,0 15,1 20,4 4 2 5 3 ZW 1016,0 37 0,0
23.06.2019 21:00:00 23,2 15,5 22,9 2 1 3 2 NNW 1015,6 60 0,0
23.06.2019 20:00:00 24,4 12,4 26,0 3 1 11 6 N 1015,3 60 0,0
23.06.2019 19:00:00 25,0 14,5 28,1 8 4 19 10 N 1015,3 60 0,0
23.06.2019 18:00:00 25,7 17,1 30,1 12 7 22 12 N 1015,5 58 0,0
23.06.2019 17:00:00 25,4 17,6 30,4 18 10 29 16 N 1015,7 58 0,0
23.06.2019 16:00:00 25,8 16,9 32,4 17 9 34 19 N 1015,8 60 0,0
23.06.2019 15:00:00 26,9 14,6 33,0 26 14 39 21 N 1015,5 56 0,0
23.06.2019 14:00:00 28,6 16,2 34,5 23 12 34 18 N 1015,4 60 0,0
23.06.2019 13:00:00 28,9 17,4 32,3 11 6 33 18 NNO 1015,2 18 0,0
23.06.2019 12:00:00 26,6 18,7 30,7 22 12 29 16 N 1015,0 20 0,0
23.06.2019 11:00:00 26,2 18,6 29,1 10 6 20 11 N 1014,9 46 0,0
23.06.2019 10:00:00 25,2 19,1 28,3 9 5 16 9 N 1015,0 49 0,0
23.06.2019 09:00:00 24,2 17,7 25,9 5 3 9 5 NO 1015,0 20 0,0
23.06.2019 08:00:00 23,1 17,3 20,1 3 2 8 4 NO 1014,7 24 0,0
23.06.2019 07:00:00 18,4 14,1 16,4 7 4 13 7 Z 1014,5 24 0,0
23.06.2019 06:00:00 16,4 13,3 15,9 9 5 14 8 Z 1014,5 13 0,0
23.06.2019 05:00:00 16,6 13,7 16,2 0 0 10 6 N 1014,5 14 0,0
23.06.2019 04:00:00 16,8 14,4 16,3 4 2 13 7 Z 1014,5 14 0,0
23.06.2019 03:00:00 17,5 14,9 16,9 8 5 12 7 Z 1014,5 17 0,0
23.06.2019 02:00:00 18,1 16,3 17,2 7 4 11 6 ZZW 1014,7 11 0,0
23.06.2019 01:00:00 19,0 16,6 18,6 8 4 11 6 ZZO 1014,8 13 0,0
23.06.2019 00:00:00 19,7 17,3 19,3 7 4 12 7 Z 1015,0 13 0,0
22.06.2019 23:00:00 20,7 18,1 19,8 3 1 12 6 NNW 1015,0 14 0,0
22.06.2019 22:00:00 21,9 18,7 21,6 9 5 14 7 O 1014,4 17 0,0
22.06.2019 21:00:00 23,2 18,3 22,9 3 2 17 9 ZZW 1013,2 21 0,0
22.06.2019 20:00:00 25,5 16,4 27,1 3 2 22 12 ZW 1013,0 24 0,0
22.06.2019 19:00:00 26,4 16,9 29,1 7 4 29 15 WZW 1012,8 26 0,0
22.06.2019 18:00:00 26,3 18,4 30,1 16 9 29 16 W 1012,9 20 0,0
22.06.2019 17:00:00 28,3 18,1 31,9 14 8 33 18 ZW 1012,3 20 0,0
22.06.2019 16:00:00 28,0 18,4 32,5 21 12 35 19 ZW 1012,4 20 0,0
22.06.2019 15:00:00 30,4 18,8 36,6 11 6 32 17 ONO 1011,7 19 0,0
22.06.2019 14:00:00 29,8 17,9 34,5 11 6 29 16 W 1011,9 52 0,0
22.06.2019 13:00:00 30,5 18,2 34,6 14 8 26 14 NO 1012,2 53 0,0
22.06.2019 12:00:00 28,7 16,6 31,5 16 9 24 13 N 1012,7 19 0,0
22.06.2019 11:00:00 27,4 16,4 30,3 11 6 22 12 N 1012,5 58 0,0
22.06.2019 10:00:00 27,9 16,5 27,4 10 5 18 10 ONO 1012,5 47 0,0
22.06.2019 09:00:00 25,6 14,7 26,9 9 5 16 9 N 1012,4 45 0,0
22.06.2019 08:00:00 25,0 11,9 22,0 7 4 14 7 Z 1012,4 51 0,0
22.06.2019 07:00:00 21,3 11,9 18,4 14 8 18 10 Z 1012,1 19 0,0
22.06.2019 06:00:00 19,5 11,5 18,3 12 6 14 8 Z 1012,2 49 0,0
22.06.2019 05:00:00 20,4 12,9 19,5 4 2 18 10 WNW 1012,0 48 0,0
22.06.2019 04:00:00 21,1 12,0 20,2 6 3 16 9 ZZW 1012,1 60 0,0
22.06.2019 03:00:00 21,7 11,7 20,7 10 5 18 10 Z 1012,2 60 0,0
22.06.2019 02:00:00 22,2 11,0 20,3 11 6 21 12 ZW 1012,8 18 0,0
22.06.2019 01:00:00 20,8 12,5 20,4 11 6 17 9 Z 1012,9 56 0,0
22.06.2019 00:00:00 22,5 11,6 21,2 7 4 18 10 NNW 1013,4 46 0,0
21.06.2019 23:00:00 21,8 10,6 20,2 9 5 16 9 Z 1012,6 52 0,0
21.06.2019 22:00:00 22,9 11,9 21,8 5 3 14 7 ZZW 1013,8 41 0,0
21.06.2019 21:00:00 24,4 15,3 23,4 2 1 20 11 WZW 1012,6 38 0,0
21.06.2019 20:00:00 24,9 17,4 25,1 3 2 15 8 NNW 1012,8 32 0,0
21.06.2019 19:00:00 25,6 17,0 26,0 5 3 10 5 O 1012,9 29 0,0
21.06.2019 18:00:00 26,5 14,9 28,0 4 2 19 10 OZO 1012,4 44 0,0
21.06.2019 17:00:00 26,2 15,0 28,4 10 5 23 13 NNW 1012,0 50 0,0
21.06.2019 16:00:00 27,9 14,9 30,5 18 10 29 16 N 1012,4 32 0,0
21.06.2019 15:00:00 30,7 16,7 32,7 13 7 29 15 NNO 1013,4 40 0,0
21.06.2019 14:00:00 27,4 17,3 31,9 19 11 28 15 N 1013,2 46 0,0
21.06.2019 13:00:00 27,0 18,6 31,7 20 11 29 15 N 1013,1 20 0,0
21.06.2019 12:00:00 26,6 18,2 30,4 16 9 23 13 N 1013,0 55 0,0
21.06.2019 11:00:00 26,0 17,9 29,4 14 8 20 11 N 1013,0 51 0,0
21.06.2019 10:00:00 26,1 16,6 28,4 10 5 16 8 N 1012,9 50 0,0
21.06.2019 09:00:00 25,8 11,9 25,2 4 2 8 5 NO 1013,5 44 0,0
21.06.2019 08:00:00 23,0 10,8 17,1 4 2 11 6 ZZW 1013,3 50 0,0
21.06.2019 07:00:00 16,1 10,2 14,5 5 3 9 5 Z 1013,6 46 0,0
21.06.2019 06:00:00 15,3 9,6 14,1 4 2 14 8 Z 1013,4 44 0,0
21.06.2019 05:00:00 16,4 10,5 15,0 13 7 16 8 Z 1013,4 48 0,0
21.06.2019 04:00:00 16,5 10,1 15,6 9 5 17 9 ZZW 1013,5 48 0,0
21.06.2019 03:00:00 17,5 11,1 16,1 9 5 15 8 Z 1013,9 43 0,0
21.06.2019 02:00:00 17,1 11,1 16,5 5 3 16 9 ZZO 1014,5 47 0,0
21.06.2019 01:00:00 17,4 11,9 16,5 8 4 13 7 ZZW 1014,8 45 0,0
21.06.2019 00:00:00 17,6 11,8 16,7 9 5 12 7 Z 1014,3 47 0,0
20.06.2019 23:00:00 18,4 11,9 17,9 8 5 14 8 Z 1014,3 50 0,0
20.06.2019 22:00:00 19,8 12,1 19,6 11 6 13 7 Z 1013,9 47 0,0
20.06.2019 21:00:00 21,8 12,4 21,1 8 4 14 8 ZW 1013,1 45 0,0
20.06.2019 20:00:00 24,7 13,6 26,8 8 4 17 9 NNW 1012,8 54 0,0
20.06.2019 19:00:00 25,5 13,4 28,8 11 6 19 10 NNW 1012,5 46 0,0
20.06.2019 18:00:00 26,3 10,8 30,9 10 5 19 10 NNW 1012,7 57 0,0
20.06.2019 17:00:00 26,3 11,2 31,7 12 7 24 13 NNW 1013,3 60 0,0
20.06.2019 16:00:00 26,0 11,7 32,3 16 8 28 15 N 1013,5 59 0,0
20.06.2019 15:00:00 25,5 16,6 32,3 16 8 29 15 NNW 1013,7 60 0,0
20.06.2019 14:00:00 25,4 12,9 31,4 21 12 30 16 N 1014,0 20 0,0
20.06.2019 13:00:00 26,6 13,7 31,7 17 9 28 15 N 1013,9 60 0,0
20.06.2019 12:00:00 26,9 13,3 30,7 21 11 28 15 N 1013,7 60 0,0
20.06.2019 11:00:00 26,5 11,4 30,4 19 11 29 15 N 1013,6 20 0,0
20.06.2019 10:00:00 27,5 8,9 30,1 12 7 18 10 N 1013,4 60 0,0
20.06.2019 09:00:00 27,2 8,1 25,2 0 0 8 4 N 1013,5 42 0,0
20.06.2019 08:00:00 22,9 10,0 17,6 6 3 13 7 ZZW 1013,4 44 0,0
20.06.2019 07:00:00 17,6 9,2 14,0 9 5 14 8 Z 1013,7 56 0,0
20.06.2019 06:00:00 14,6 8,3 14,2 6 3 16 8 Z 1013,9 58 0,0
20.06.2019 05:00:00 15,5 8,9 14,1 10 6 14 7 Z 1013,8 51 0,0
20.06.2019 04:00:00 15,4 8,6 14,5 6 3 16 9 Z 1014,0 58 0,0
20.06.2019 03:00:00 16,3 9,5 14,1 13 7 16 9 Z 1014,1 58 0,0
20.06.2019 02:00:00 15,5 9,6 14,6 4 2 13 7 Z 1014,4 56 0,0
20.06.2019 01:00:00 17,2 10,1 16,0 14 8 18 10 Z 1014,3 55 0,0
20.06.2019 00:00:00 17,4 10,7 16,3 6 3 17 9 ZZW 1014,6 57 0,0
19.06.2019 23:00:00 19,0 11,8 17,8 6 3 12 6 ZZW 1014,5 56 0,0
19.06.2019 22:00:00 19,0 12,3 18,4 7 4 13 7 ZZW 1014,1 50 0,0
19.06.2019 21:00:00 20,9 13,6 19,9 5 3 7 4 ZW 1013,5 47 0,0
19.06.2019 20:00:00 24,3 11,9 26,9 7 4 16 8 N 1013,6 60 0,0

tt = temperatuur
td = dauwpunt
tt 5cm = temperatuur 5cm
ff = windsnelheid
fx = windstoten
dd = windrichting
ppp = luchtdruk
vv = zicht
rr = neerslag

Weerstations in de omgeving